Location: Castillon
(43.0896°N, 0.2156°E)
Time: 01:07:23
(UTC+00:00)

ATLAS 3B R/B - Visible Passes

Search period start: 24 October 2021 00:00
Search period end: 03 November 2021 00:00
Orbit: 994 x 1201 km, 63.8° (Epoch: 22 October)

Date Brightness Start Highest point End Pass type
(mag) Time Alt. Az. Time Alt. Az. Time Alt. Az.
24 Oct 4.3 17:42:24 10° W 17:47:56 27° NW 17:53:42 10° NNE visible
24 Oct 4.9 19:38:05 10° NW 19:41:18 13° N 19:44:35 10° NNE visible
24 Oct 5.1 21:30:41 10° NNW 21:31:57 13° N 21:31:57 13° N visible
25 Oct 4.9 18:49:14 10° NW 18:53:03 15° NNW 18:56:59 10° NNE visible
25 Oct 4.9 20:43:20 10° NNW 20:46:00 14° N 20:46:00 14° N visible
26 Oct 4.7 18:00:19 10° WNW 18:04:56 19° NNW 18:09:41 10° NNE visible
26 Oct 4.8 19:55:37 10° NNW 19:58:46 13° N 20:00:04 13° NNE visible
26 Oct 5.2 21:46:38 10° NNW 21:47:18 12° NNW 21:47:18 12° NNW visible
27 Oct 4.9 19:07:21 10° NNW 19:10:27 13° N 19:13:37 10° NNE visible
27 Oct 4.9 20:59:29 10° NNW 21:01:22 15° N 21:01:22 15° N visible
28 Oct 4.8 18:18:35 10° NW 18:22:11 15° NNW 18:25:53 10° NNE visible
28 Oct 4.8 20:12:13 10° NNW 20:15:27 15° N 20:15:27 15° N visible
28 Oct 5.4 22:02:32 10° NNW 22:02:41 11° NNW 22:02:41 11° NNW visible
29 Oct 4.7 17:29:39 10° WNW 17:34:01 18° NNW 17:38:30 10° NNE visible
29 Oct 4.7 19:24:38 10° NNW 19:27:55 13° N 19:29:32 13° NNE visible
29 Oct 5.0 21:15:25 10° NNW 21:16:45 15° NNW 21:16:45 15° NNW visible
30 Oct 4.8 18:36:33 10° NNW 18:39:37 13° N 18:42:43 10° NNE visible
30 Oct 4.7 20:28:17 10° NNW 20:30:52 17° N 20:30:52 17° N visible
31 Oct 4.8 17:47:54 10° NW 17:51:19 14° N 17:54:48 10° NNE visible
31 Oct 4.6 19:41:03 10° NNW 19:44:58 16° NNE 19:44:58 16° NNE visible
31 Oct 5.2 21:31:19 10° NNW 21:32:12 14° NNW 21:32:12 14° NNW visible
01 Nov 4.6 18:53:36 10° NNW 18:57:04 14° N 18:59:05 13° NNE visible
01 Nov 4.8 20:44:12 10° NNW 20:46:20 18° N 20:46:20 18° N visible
02 Nov 4.7 18:05:42 10° NNW 18:08:46 13° N 18:11:54 10° NNE visible
02 Nov 4.5 19:57:04 10° NNW 20:00:28 20° N 20:00:28 20° N visible
02 Nov 5.3 21:47:17 10° NNW 21:47:42 12° NNW 21:47:42 12° NNW visible
